Bainbridge, GA

5:52 PM EST on January 19, 2017 (GMT -0500)
Decatur County Industrial

Weather History for KBGE - December, 2012

Change the Weather History Date:

Wednesday, December 5, 2012

  Actual Average (KABY) Record (KABY)
Temperature  
Mean Temperature 64 °F -  
Max Temperature 78 °F 63 °F 83 °F (1977)
Min Temperature 51 °F 41 °F 19 °F (1989)
Growing Degree Days 14 (Base 50)    
Moisture  
Dew Point 53 °F    
Average Humidity 73    
Maximum Humidity 100    
Minimum Humidity 36    
Precipitation  
Precipitation 0.00 in - - ()
Sea Level Pressure  
Sea Level Pressure 30.15 in    
Wind  
Wind Speed 2 mph (East)    
Max Wind Speed 7 mph    
Max Gust Speed -    
Visibility 9 miles    
Events      
Averages and records for this station are not official NWS values.
T = Trace of Precipitation, MM = Missing Value Source: NWS Daily Summary

Daily Weather History Graph

Daily Weather History Graph

Search for Another Location

Airport or City:

Trip Planner

Search our weather history database for the weather conditions in past years. The results will help you decide how hot, cold, wet, or windy it might be!

Date:

Astronomy

Dec. 05, 2012 Rise Set
Actual Time 7:22 AM EST 5:36 PM EST
Civil Twilight 6:56 AM EST 6:02 PM EST
Nautical Twilight 6:26 AM EST 6:32 PM EST
Astronomical Twilight 5:56 AM EST 7:02 PM EST
Moon No Moon Rise 12:03 PM EST (12/5)
Length of Visible Light 11h 06m
Length of Day
10h 13m
Waning Gibbous, 60% of the Moon is Illuminated
Dec 5
Waning Gibbous
Dec 6
Last Quarter
Dec 13
New
Dec 20
First Quarter
Dec 28
Full

Hourly Weather History & Observations

Time (EST) Temp. Dew Point Humidity Pressure Visibility Wind Dir Wind Speed Gust Speed Precip Events Conditions
12:15 AM 57.2 °F 55.4 °F 94% 30.23 in 10.0 mi ESE 3.5 mph - N/A   Clear
12:35 AM 57.2 °F 55.4 °F 94% 30.22 in 10.0 mi SE 4.6 mph - N/A   Clear
12:55 AM 57.2 °F 55.4 °F 94% 30.22 in 10.0 mi Calm Calm - N/A   Clear
1:15 AM 57.2 °F 55.4 °F 94% 30.21 in 10.0 mi Calm Calm - N/A   Clear
1:35 AM 57.2 °F 55.4 °F 94% 30.21 in 10.0 mi Calm Calm - N/A   Clear
1:55 AM 57.2 °F 55.4 °F 94% 30.21 in 10.0 mi Calm Calm - N/A   Clear
2:15 AM 57.2 °F 55.4 °F 94% 30.21 in 10.0 mi Calm Calm - N/A   Clear
2:35 AM 53.6 °F 53.6 °F 100% 30.21 in 10.0 mi Calm Calm - N/A   Clear
2:55 AM 53.6 °F 53.6 °F 100% 30.20 in 10.0 mi Calm Calm - N/A   Clear
3:15 AM 53.6 °F 53.6 °F 100% 30.19 in 10.0 mi Calm Calm - N/A   Clear
3:35 AM 53.6 °F 51.8 °F 94% 30.19 in 10.0 mi Calm Calm - N/A   Clear
3:55 AM 53.6 °F 51.8 °F 94% 30.19 in 7.0 mi East 3.5 mph - N/A   Clear
4:15 AM 51.8 °F 51.8 °F 100% 30.19 in 10.0 mi East 3.5 mph - N/A   Clear
4:35 AM 51.8 °F 51.8 °F 100% 30.18 in 7.0 mi Calm Calm - N/A   Clear
4:55 AM 53.6 °F 51.8 °F 94% 30.18 in 7.0 mi Calm Calm - N/A   Clear
5:15 AM 51.8 °F 51.8 °F 100% 30.19 in 5.0 mi Calm Calm - N/A   Clear
5:35 AM 51.8 °F 51.8 °F 100% 30.19 in 3.0 mi Calm Calm - N/A   Clear
5:55 AM 51.8 °F 51.8 °F 100% 30.20 in 7.0 mi Calm Calm - N/A   Clear
6:15 AM 51.8 °F 51.8 °F 100% 30.20 in 7.0 mi Calm Calm - N/A   Clear
6:35 AM 51.8 °F 51.8 °F 100% 30.21 in 1.5 mi Calm Calm - N/A   Mist
6:55 AM 51.8 °F 51.8 °F 100% 30.21 in 7.0 mi Calm Calm - N/A   Clear
7:15 AM 51.8 °F 51.8 °F 100% 30.21 in 10.0 mi Calm Calm - N/A   Clear
7:35 AM 51.8 °F 51.8 °F 100% 30.22 in 4.0 mi Calm Calm - N/A   Clear
7:55 AM 51.8 °F 51.8 °F 100% 30.22 in 10.0 mi Calm Calm - N/A   Clear
9:55 AM 62.6 °F 57.2 °F 82% 30.23 in 10.0 mi Calm Calm - N/A   Clear
10:15 AM 68.0 °F 59.0 °F 73% 30.23 in 10.0 mi Calm Calm - N/A   Clear
10:35 AM 69.8 °F 59.0 °F 68% 30.22 in 10.0 mi Calm Calm - N/A   Clear
10:55 AM 71.6 °F 59.0 °F 64% 30.22 in 10.0 mi South 3.5 mph - N/A   Clear
11:15 AM 71.6 °F 59.0 °F 64% 30.22 in 10.0 mi South 3.5 mph - N/A   Clear
11:35 AM 73.4 °F 59.0 °F 61% 30.20 in 10.0 mi Calm Calm - N/A   Clear
11:55 AM 77.0 °F 57.2 °F 50% 30.20 in 10.0 mi SSW 3.5 mph - N/A   Clear
12:15 PM 77.0 °F 53.6 °F 44% 30.18 in 10.0 mi Calm Calm - N/A   Clear
12:35 PM 77.0 °F 51.8 °F 41% 30.17 in 10.0 mi SSE 3.5 mph - N/A   Clear
12:55 PM 77.0 °F 51.8 °F 41% 30.15 in 10.0 mi SE 3.5 mph - N/A   Clear
1:15 PM 77.0 °F 50.0 °F 39% 30.15 in 10.0 mi SE 5.8 mph - N/A   Clear
1:35 PM 78.8 °F 50.0 °F 36% 30.13 in 10.0 mi SSW 3.5 mph - N/A   Clear
1:55 PM 78.8 °F 50.0 °F 36% 30.12 in 10.0 mi SSE 6.9 mph - N/A   Clear
2:15 PM 77.0 °F 50.0 °F 39% 30.11 in 10.0 mi SSE 3.5 mph - N/A   Clear
2:35 PM 78.8 °F 50.0 °F 36% 30.09 in 10.0 mi NE 4.6 mph - N/A   Clear
2:55 PM 77.0 °F 48.2 °F 36% 30.08 in 10.0 mi Calm Calm - N/A   Clear
3:15 PM 77.0 °F 50.0 °F 39% 30.08 in 10.0 mi ENE 3.5 mph - N/A   Clear
3:35 PM 77.0 °F 50.0 °F 39% 30.08 in 10.0 mi NNE 3.5 mph - N/A   Clear
3:55 PM 77.0 °F 50.0 °F 39% 30.08 in 10.0 mi North 4.6 mph - N/A   Clear
4:15 PM 77.0 °F 51.8 °F 41% 30.08 in 10.0 mi NNE 3.5 mph - N/A   Clear
4:35 PM 77.0 °F 51.8 °F 41% 30.08 in 10.0 mi North 3.5 mph - N/A   Clear
4:55 PM 73.4 °F 51.8 °F 47% 30.08 in 10.0 mi NNE 3.5 mph - N/A   Clear
5:15 PM 71.6 °F 51.8 °F 50% 30.08 in 10.0 mi North 3.5 mph - N/A   Clear
5:35 PM 71.6 °F 51.8 °F 50% 30.08 in 10.0 mi NNE 3.5 mph - N/A   Clear
5:55 PM 71.6 °F 55.4 °F 57% 30.09 in 10.0 mi Calm Calm - N/A   Clear
6:15 PM 69.8 °F 53.6 °F 56% 30.09 in 10.0 mi Calm Calm - N/A   Scattered Clouds
6:35 PM 68.0 °F 53.6 °F 60% 30.09 in 10.0 mi Calm Calm - N/A   Scattered Clouds
7:15 PM 62.6 °F 53.6 °F 72% 30.10 in 10.0 mi Calm Calm - N/A   Scattered Clouds
7:35 PM 62.6 °F 53.6 °F 72% 30.10 in 10.0 mi Calm Calm - N/A   Scattered Clouds
7:55 PM 62.6 °F 53.6 °F 72% 30.10 in 10.0 mi Calm Calm - N/A   Scattered Clouds
8:15 PM 62.6 °F 53.6 °F 72% 30.10 in 10.0 mi Calm Calm - N/A   Clear
8:35 PM 62.6 °F 53.6 °F 72% 30.10 in 10.0 mi Calm Calm - N/A   Clear
8:55 PM 59.0 °F 53.6 °F 82% 30.10 in 10.0 mi Calm Calm - N/A   Clear
9:15 PM 59.0 °F 53.6 °F 82% 30.10 in 10.0 mi Calm Calm - N/A   Clear
10:15 PM 59.0 °F 53.6 °F 82% 30.10 in 10.0 mi Calm Calm - N/A   Clear
10:35 PM 59.0 °F 53.6 °F 82% 30.09 in 10.0 mi ENE 4.6 mph - N/A   Clear
10:55 PM 59.0 °F 53.6 °F 82% 30.10 in 10.0 mi Calm Calm - N/A   Clear
11:15 PM 57.2 °F 53.6 °F 88% 30.10 in 10.0 mi Calm Calm - N/A   Clear
11:35 PM 57.2 °F 51.8 °F 82% 30.10 in 10.0 mi Calm Calm - N/A   Clear
11:55 PM 57.2 °F 53.6 °F 88% 30.10 in 10.0 mi Calm Calm - N/A   Clear